Simultaneous Nadir Overpasses (SNOs) Predictions

Prediction of SNOs between FY3D and NOAA-19 Satellite Orbit:

Table of predicted SNOs for the next 14.0 days since TLE Epoch: 11/26/2022
Index Date (FY3D) Time (FY3D) Lat,Lon (FY3D) SZA (FY3D ) Date (NOAA-19) Time (NOAA-19) Lat,Lon (NOAA-19) SZA (NOAA-19 ) Distance(km) Time Diff (sec)
1 12/01/2022 09:17:10 76.89, 28.18 98.82 12/01/2022 09:15:58 76.90, 27.05 98.88 28.53 72
2 12/01/2022 10:07:58 -77.03,-165.09 81.02 12/01/2022 10:06:57 -77.04,-165.07 81.00 1.11 61
3 12/01/2022 10:58:45 77.03, 2.21 98.99 12/01/2022 10:57:54 77.05, 2.22 99.01 1.76 51
4 12/01/2022 11:49:30 -77.04, 169.48 81.00 12/01/2022 11:48:56 -77.07, 169.55 80.97 3.08 34
5 12/01/2022 12:40:17 77.04, -23.22 99.01 12/01/2022 12:39:53 77.07, -23.16 99.05 3.57 24
6 12/01/2022 13:31:02 -77.05, 144.06 80.97 12/01/2022 13:30:56 -77.05, 143.98 80.97 1.99 6
7 12/01/2022 14:21:49 77.05, -48.64 99.04 12/01/2022 14:21:53 77.05, -48.73 99.04 2.26 4
8 12/01/2022 15:12:34 -77.06, 118.63 80.95 12/01/2022 15:12:55 -77.07, 118.60 80.94 1.55 21
9 12/01/2022 16:03:21 77.06, -74.07 99.06 12/01/2022 16:03:52 77.08, -74.12 99.07 2.12 31
10 12/01/2022 16:54:06 -77.07, 93.20 80.93 12/01/2022 16:54:54 -77.10, 93.21 80.91 2.94 48
11 12/01/2022 17:44:53 77.07, -99.50 99.08 12/01/2022 17:45:51 77.10, -99.50 99.10 3.31 58
12 12/01/2022 18:35:39 -77.13, 67.59 80.86 12/01/2022 18:36:54 -77.08, 67.65 80.91 4.96 75



Historial Predications of SNOs between FY3D and NOAA-19
